Flag for Rwanda Weather past 2 weeks in Kigali, Rwanda

Now
70 °F

Passing clouds.


Feels Like: 70 °F
Forecast: 62 / 78 °F
Wind: 3 mph from Southeast

Location: Kigali Airport

Current Time: May 22, 2015 at 11:01:23 PM

Latest Report: May 22, 2015 at 10:30 PM


Visibility: N/A

Pressure: 30.21 "Hg

Humidity: 83%

Dew point: 64 °F

Location of KigaliLocation

Historic Weather in Kigali — Graph

°F

Kigali temperature yesterday

Maximum temperature yesterday: 79 °F (at 2:00 PM)
Minimum temperature yesterday: 63 °F (at 4:30 AM)
Average temperature yesterday: 71 °F

Past Weeks' High & Low Weather Summary

 TemperatureHumidityPressure
High82 °F (May 11, 2:00 PM)100% (May 7, 11:00 PM)30.27 "Hg (May 7, 11:00 PM)
Low61 °F (May 15, 4:30 AM)51% (May 17, 3:30 PM)30.04 "Hg (May 17, 4:30 PM)
Average70 °F86%30.17 "Hg
* Reported May 7 10:00 PM — May 22 10:00 PM, Kigali, Weather by CustomWeather, © 2015

Note: Actual official high and low records may vary slightly from our data, if they occured in-between our weather recording intervals... More about our weather records

Advertising

Kigali weather history for previous 24 hours

 ConditionsComfort  
Time TempWeatherWind HumidityBarometerVisibility
10:00 PM
Fri, May 22
72 °FPassing clouds.5 mph78%30.21 "HgN/A
9:30 PM72 °FPassing clouds.No wind78%30.21 "HgN/A
9:00 PM72 °FPassing clouds.3 mph78%30.21 "HgN/A
8:30 PM70 °FPassing clouds.No wind83%30.18 "HgN/A
8:00 PM72 °FPassing clouds.No wind78%30.18 "HgN/A
7:30 PM72 °FPassing clouds.No wind78%30.15 "HgN/A
7:00 PM72 °FPassing clouds.No wind73%30.15 "HgN/A
6:30 PM73 °FPassing clouds.5 mph74%30.15 "HgN/A
6:00 PM73 °FPassing clouds.5 mph74%30.15 "HgN/A
5:30 PM75 °FScattered clouds.7 mph65%30.15 "HgN/A
5:00 PM77 °FScattered clouds.7 mph61%30.15 "HgN/A
4:30 PM77 °FScattered clouds.7 mph61%30.12 "HgN/A
4:00 PM77 °FPartly sunny.7 mph61%30.12 "HgN/A
3:30 PM79 °FPartly sunny.7 mph58%30.12 "HgN/A
3:00 PM79 °FPartly sunny.9 mph58%30.15 "HgN/A
2:30 PM79 °FPartly sunny.9 mph61%30.15 "HgN/A
2:00 PM79 °FPartly sunny.9 mph61%30.15 "HgN/A
1:30 PM79 °FPartly sunny.6 mph61%30.18 "HgN/A
1:00 PM77 °FPartly sunny.5 mph69%30.18 "HgN/A
12:30 PM75 °FPartly sunny.6 mph69%30.21 "HgN/A
12:00 PM75 °FPartly sunny.7 mph65%30.24 "HgN/A
11:30 AM75 °FPartly sunny.8 mph69%30.24 "HgN/A
11:00 AM75 °FPartly sunny.8 mph65%30.24 "HgN/A
10:30 AM73 °FScattered clouds.8 mph69%30.24 "HgN/A
10:00 AM73 °FScattered clouds.7 mph74%30.27 "HgN/A
9:30 AM75 °FScattered clouds.8 mph69%30.27 "HgN/A
9:00 AM73 °FScattered clouds.5 mph78%30.24 "HgN/A
8:30 AM72 °FScattered clouds.3 mph83%30.24 "HgN/A
8:00 AM70 °FScattered clouds.No wind83%30.24 "HgN/A
7:30 AM68 °FScattered clouds.No wind88%30.24 "HgN/A
7:00 AM64 °FScattered clouds.No wind100%30.24 "HgN/A
6:30 AM64 °FScattered clouds.No wind100%30.21 "HgN/A
6:00 AM64 °FScattered clouds.No wind100%30.21 "HgN/A
5:30 AM64 °FPassing clouds.3 mph100%30.21 "HgN/A
5:00 AM64 °FPassing clouds.3 mph100%30.18 "HgN/A
4:30 AM64 °FPassing clouds.3 mph100%30.18 "HgN/A
4:00 AM64 °FPassing clouds.3 mph100%30.18 "HgN/A
3:30 AM64 °FPassing clouds.No wind100%30.18 "HgN/A
3:00 AM66 °FPassing clouds.3 mph94%30.18 "HgN/A
2:30 AM66 °FPassing clouds.3 mph94%30.18 "HgN/A
2:00 AM66 °FPassing clouds.3 mph94%30.18 "HgN/A
1:30 AM66 °FPassing clouds.3 mph94%30.18 "HgN/A
1:00 AM66 °FPassing clouds.No wind94%30.18 "HgN/A
12:30 AM66 °FPassing clouds.No wind94%30.21 "HgN/A
12:00 AM66 °FPassing clouds.3 mph94%30.21 "HgN/A
11:30 PM
Thu, May 21
68 °FPassing clouds.No wind94%30.21 "HgN/A
11:00 PM68 °FPassing clouds.3 mph94%30.21 "HgN/A
Weather by CustomWeather, © 2015

See weather overviewHow to use our weather pages